Year,Month,Day,Hour,Minute,Value (Times are PST for temperature in C)
2010,07,07,00,00,13.30
2010,07,07,00,01,13.30
2010,07,07,00,02,13.30
2010,07,07,00,03,13.30
2010,07,07,00,04,13.30
2010,07,07,00,05,13.30
2010,07,07,00,06,13.30
2010,07,07,00,07,13.30
2010,07,07,00,08,13.30
2010,07,07,00,09,13.30
2010,07,07,00,10,13.30
2010,07,07,00,11,13.30
2010,07,07,00,12,13.30
2010,07,07,00,13,13.30
2010,07,07,00,14,13.30
2010,07,07,00,15,13.30
2010,07,07,00,16,13.30
2010,07,07,00,17,13.30
2010,07,07,00,18,13.30
2010,07,07,00,19,13.30
2010,07,07,00,20,13.40
2010,07,07,00,21,13.40
2010,07,07,00,22,13.40
2010,07,07,00,23,13.40
2010,07,07,00,24,13.40
2010,07,07,00,25,13.40
2010,07,07,00,26,13.40
2010,07,07,00,27,13.30
2010,07,07,00,28,13.30
2010,07,07,00,29,13.30
2010,07,07,00,30,13.30
2010,07,07,00,31,13.30
2010,07,07,00,32,13.30
2010,07,07,00,33,13.30
2010,07,07,00,34,13.30
2010,07,07,00,35,13.20
2010,07,07,00,36,13.20
2010,07,07,00,37,13.20
2010,07,07,00,38,13.20
2010,07,07,00,39,13.20
2010,07,07,00,40,13.10
2010,07,07,00,41,13.10
2010,07,07,00,42,13.10
2010,07,07,00,43,13.10
2010,07,07,00,44,13.10
2010,07,07,00,45,13.10
2010,07,07,00,46,13.10
2010,07,07,00,47,13.10
2010,07,07,00,48,13.10
2010,07,07,00,49,13.10
2010,07,07,00,50,13.10
2010,07,07,00,51,13.10
2010,07,07,00,52,13.10
2010,07,07,00,53,13.20
2010,07,07,00,54,13.20
2010,07,07,00,55,13.20
2010,07,07,00,56,13.20
2010,07,07,00,57,13.20
2010,07,07,00,58,13.20
2010,07,07,00,59,13.20
2010,07,07,01,00,13.20
2010,07,07,01,01,13.20
2010,07,07,01,02,13.30
2010,07,07,01,03,13.30
2010,07,07,01,04,13.30
2010,07,07,01,05,13.30
2010,07,07,01,06,13.30
2010,07,07,01,07,13.30
2010,07,07,01,08,13.30
2010,07,07,01,09,13.30
2010,07,07,01,10,13.30
2010,07,07,01,11,13.30
2010,07,07,01,12,13.30
2010,07,07,01,13,13.30
2010,07,07,01,14,13.30
2010,07,07,01,15,13.30
2010,07,07,01,16,13.30
2010,07,07,01,17,13.30
2010,07,07,01,18,13.30
2010,07,07,01,19,13.30
2010,07,07,01,20,13.30
2010,07,07,01,21,13.30
2010,07,07,01,22,13.20
2010,07,07,01,23,13.20
2010,07,07,01,24,13.20
2010,07,07,01,25,13.20
2010,07,07,01,26,13.20
2010,07,07,01,27,13.20
2010,07,07,01,28,13.10
2010,07,07,01,29,13.10
2010,07,07,01,30,13.10
2010,07,07,01,31,13.10
2010,07,07,01,32,13.10
2010,07,07,01,33,13.00
2010,07,07,01,34,13.00
2010,07,07,01,35,13.00
2010,07,07,01,36,12.90
2010,07,07,01,37,12.90
2010,07,07,01,38,12.90
2010,07,07,01,39,12.80
2010,07,07,01,40,12.80
2010,07,07,01,41,12.80
2010,07,07,01,42,12.80
2010,07,07,01,43,12.80
2010,07,07,01,44,12.80
2010,07,07,01,45,12.80
2010,07,07,01,46,12.80
2010,07,07,01,47,12.80
2010,07,07,01,48,12.80
2010,07,07,01,49,12.80
2010,07,07,01,50,12.80
2010,07,07,01,51,12.80
2010,07,07,01,52,12.90
2010,07,07,01,53,12.90
2010,07,07,01,54,12.90
2010,07,07,01,55,13.00
2010,07,07,01,56,13.00
2010,07,07,01,57,13.10
2010,07,07,01,58,13.10
2010,07,07,01,59,13.20
2010,07,07,02,00,13.20
2010,07,07,02,01,13.30
2010,07,07,02,02,13.30
2010,07,07,02,03,13.30
2010,07,07,02,04,13.30
2010,07,07,02,05,13.30
2010,07,07,02,06,13.40
2010,07,07,02,07,13.40
2010,07,07,02,08,13.40
2010,07,07,02,09,13.50
2010,07,07,02,10,13.50
2010,07,07,02,11,13.50
2010,07,07,02,12,13.50
2010,07,07,02,13,13.50
2010,07,07,02,14,13.50
2010,07,07,02,15,13.40
2010,07,07,02,16,13.40
2010,07,07,02,17,13.40
2010,07,07,02,18,13.30
2010,07,07,02,19,13.30
2010,07,07,02,20,13.30
2010,07,07,02,21,13.20
2010,07,07,02,22,13.20
2010,07,07,02,23,13.10
2010,07,07,02,24,13.10
2010,07,07,02,25,13.00
2010,07,07,02,26,13.00
2010,07,07,02,27,12.90
2010,07,07,02,28,12.80
2010,07,07,02,29,12.80
2010,07,07,02,30,12.80
2010,07,07,02,31,12.80
2010,07,07,02,32,12.70
2010,07,07,02,33,12.70
2010,07,07,02,34,12.70
2010,07,07,02,35,12.60
2010,07,07,02,36,12.60
2010,07,07,02,37,12.60
2010,07,07,02,38,12.60
2010,07,07,02,39,12.60
2010,07,07,02,40,12.60
2010,07,07,02,41,12.60
2010,07,07,02,42,12.60
2010,07,07,02,43,12.60
2010,07,07,02,44,12.70
2010,07,07,02,45,12.70
2010,07,07,02,46,12.70
2010,07,07,02,47,12.70
2010,07,07,02,48,12.80
2010,07,07,02,49,12.80
2010,07,07,02,50,12.80
2010,07,07,02,51,12.80
2010,07,07,02,52,12.80
2010,07,07,02,53,12.80
2010,07,07,02,54,12.90
2010,07,07,02,55,12.90
2010,07,07,02,56,13.00
2010,07,07,02,57,13.10
2010,07,07,02,58,13.20
2010,07,07,02,59,13.30
2010,07,07,03,00,13.50
2010,07,07,03,01,13.60
2010,07,07,03,02,13.70
2010,07,07,03,03,13.80
2010,07,07,03,04,13.90
2010,07,07,03,05,14.10
2010,07,07,03,06,14.20
2010,07,07,03,07,14.30
2010,07,07,03,08,14.50
2010,07,07,03,09,14.70
2010,07,07,03,10,14.80
2010,07,07,03,11,14.90
2010,07,07,03,12,15.00
2010,07,07,03,13,15.10
2010,07,07,03,14,15.20
2010,07,07,03,15,15.30
2010,07,07,03,16,15.30
2010,07,07,03,17,15.40
2010,07,07,03,18,15.50
2010,07,07,03,19,15.50
2010,07,07,03,20,15.60
2010,07,07,03,21,15.60
2010,07,07,03,22,15.70
2010,07,07,03,23,15.80
2010,07,07,03,24,15.80
2010,07,07,03,25,15.80
2010,07,07,03,26,15.80
2010,07,07,03,27,15.90
2010,07,07,03,28,15.90
2010,07,07,03,29,16.00
2010,07,07,03,30,16.10
2010,07,07,03,31,16.10
2010,07,07,03,32,16.10
2010,07,07,03,33,16.10
2010,07,07,03,34,16.10
2010,07,07,03,35,16.10
2010,07,07,03,36,16.20
2010,07,07,03,37,16.20
2010,07,07,03,38,16.20
2010,07,07,03,39,16.20
2010,07,07,03,40,16.20
2010,07,07,03,41,16.20
2010,07,07,03,42,16.20
2010,07,07,03,43,16.20
2010,07,07,03,44,16.20
2010,07,07,03,45,16.20
2010,07,07,03,46,16.20
2010,07,07,03,47,16.20
2010,07,07,03,48,16.20
2010,07,07,03,49,16.20
2010,07,07,03,50,16.20
2010,07,07,03,51,16.20
2010,07,07,03,52,16.20
2010,07,07,03,53,16.20
2010,07,07,03,54,16.20
2010,07,07,03,55,16.20
2010,07,07,03,56,16.20
2010,07,07,03,57,16.20
2010,07,07,03,58,16.20
2010,07,07,03,59,16.20
2010,07,07,04,00,16.20
2010,07,07,04,01,16.20
2010,07,07,04,02,16.20
2010,07,07,04,03,16.20
2010,07,07,04,04,16.20
2010,07,07,04,05,16.20
2010,07,07,04,06,16.20
2010,07,07,04,07,16.20
2010,07,07,04,08,16.20
2010,07,07,04,09,16.10
2010,07,07,04,10,16.10
2010,07,07,04,11,16.10
2010,07,07,04,12,16.10
2010,07,07,04,13,16.10
2010,07,07,04,14,16.10
2010,07,07,04,15,16.10
2010,07,07,04,16,16.10
2010,07,07,04,17,16.10
2010,07,07,04,18,16.10
2010,07,07,04,19,16.10
2010,07,07,04,20,16.10
2010,07,07,04,21,16.10
2010,07,07,04,22,16.10
2010,07,07,04,23,16.10
2010,07,07,04,24,16.10
2010,07,07,04,25,16.10
2010,07,07,04,26,16.10
2010,07,07,04,27,16.10
2010,07,07,04,28,16.10
2010,07,07,04,29,16.10
2010,07,07,04,30,16.10
2010,07,07,04,31,16.10
2010,07,07,04,32,16.10
2010,07,07,04,33,16.10
2010,07,07,04,34,16.10
2010,07,07,04,35,16.10
2010,07,07,04,36,16.10
2010,07,07,04,37,16.00
2010,07,07,04,38,16.00
2010,07,07,04,39,15.90
2010,07,07,04,40,15.90
2010,07,07,04,41,15.90
2010,07,07,04,42,15.90
2010,07,07,04,43,15.90
2010,07,07,04,44,15.90
2010,07,07,04,45,16.00
2010,07,07,04,46,16.10
2010,07,07,04,47,16.10
2010,07,07,04,48,16.10
2010,07,07,04,49,16.10
2010,07,07,04,50,16.10
2010,07,07,04,51,16.10
2010,07,07,04,52,16.10
2010,07,07,04,53,16.10
2010,07,07,04,54,16.10
2010,07,07,04,55,16.10
2010,07,07,04,56,16.10
2010,07,07,04,57,16.00
2010,07,07,04,58,15.90
2010,07,07,04,59,15.90
2010,07,07,05,00,15.90
2010,07,07,05,01,15.90
2010,07,07,05,02,15.90
2010,07,07,05,03,15.90
2010,07,07,05,04,15.90
2010,07,07,05,05,15.90
2010,07,07,05,06,15.90
2010,07,07,05,07,15.90
2010,07,07,05,08,15.90
2010,07,07,05,09,15.90
2010,07,07,05,10,15.90
2010,07,07,05,11,15.90
2010,07,07,05,12,15.90
2010,07,07,05,13,15.90
2010,07,07,05,14,15.90
2010,07,07,05,15,15.90
2010,07,07,05,16,15.90
2010,07,07,05,17,15.90
2010,07,07,05,18,15.90
2010,07,07,05,19,15.80
2010,07,07,05,20,15.80
2010,07,07,05,21,15.80
2010,07,07,05,22,15.80
2010,07,07,05,23,15.80
2010,07,07,05,24,15.80
2010,07,07,05,25,15.80
2010,07,07,05,26,15.80
2010,07,07,05,27,15.80
2010,07,07,05,28,15.80
2010,07,07,05,29,15.80
2010,07,07,05,30,15.80
2010,07,07,05,31,15.80
2010,07,07,05,32,15.80
2010,07,07,05,33,15.70
2010,07,07,05,34,15.70
2010,07,07,05,35,15.70
2010,07,07,05,36,15.70
2010,07,07,05,37,15.70
2010,07,07,05,38,15.70
2010,07,07,05,39,15.70
2010,07,07,05,40,15.70
2010,07,07,05,41,15.70
2010,07,07,05,42,15.70
2010,07,07,05,43,15.70
2010,07,07,05,44,15.70
2010,07,07,05,45,15.70
2010,07,07,05,46,15.70
2010,07,07,05,47,15.70
2010,07,07,05,48,15.70
2010,07,07,05,49,15.70
2010,07,07,05,50,15.70
2010,07,07,05,51,15.70
2010,07,07,05,52,15.70
2010,07,07,05,53,15.70
2010,07,07,05,54,15.80
2010,07,07,05,55,15.80
2010,07,07,05,56,15.80
2010,07,07,05,57,15.80
2010,07,07,05,58,15.80
2010,07,07,05,59,15.80
2010,07,07,06,00,15.80
2010,07,07,06,01,15.80
2010,07,07,06,02,15.70
2010,07,07,06,03,15.70
2010,07,07,06,04,15.70
2010,07,07,06,05,15.70
2010,07,07,06,06,15.70
2010,07,07,06,07,15.70
2010,07,07,06,08,15.60
2010,07,07,06,09,15.60
2010,07,07,06,10,15.60
2010,07,07,06,11,15.60
2010,07,07,06,12,15.60
2010,07,07,06,13,15.60
2010,07,07,06,14,15.60
2010,07,07,06,15,15.60
2010,07,07,06,16,15.60
2010,07,07,06,17,15.60
2010,07,07,06,18,15.60
2010,07,07,06,19,15.60
2010,07,07,06,20,15.60
2010,07,07,06,21,15.60
2010,07,07,06,22,15.60
2010,07,07,06,23,15.70
2010,07,07,06,24,15.70
2010,07,07,06,25,15.80
2010,07,07,06,26,15.80
2010,07,07,06,27,15.80
2010,07,07,06,28,15.80
2010,07,07,06,29,15.80
2010,07,07,06,30,15.90
2010,07,07,06,31,15.90
2010,07,07,06,32,15.90
2010,07,07,06,33,15.90
2010,07,07,06,34,16.00
2010,07,07,06,35,16.10
2010,07,07,06,36,16.10
2010,07,07,06,37,16.10
2010,07,07,06,38,16.10
2010,07,07,06,39,16.10
2010,07,07,06,40,16.10
2010,07,07,06,41,16.10
2010,07,07,06,42,16.10
2010,07,07,06,43,16.10
2010,07,07,06,44,16.10
2010,07,07,06,45,16.10
2010,07,07,06,46,16.10
2010,07,07,06,47,16.20
2010,07,07,06,48,16.30
2010,07,07,06,49,16.30
2010,07,07,06,50,16.40
2010,07,07,06,51,16.40
2010,07,07,06,52,16.50
2010,07,07,06,53,16.60
2010,07,07,06,54,16.60
2010,07,07,06,55,16.70
2010,07,07,06,56,16.70
2010,07,07,06,57,16.70
2010,07,07,06,58,16.70
2010,07,07,06,59,16.70
2010,07,07,07,00,16.70
2010,07,07,07,01,16.70
2010,07,07,07,02,16.80
2010,07,07,07,03,16.80
2010,07,07,07,04,16.80
2010,07,07,07,05,16.90
2010,07,07,07,06,16.90
2010,07,07,07,07,16.90
2010,07,07,07,08,17.00
2010,07,07,07,09,17.00
2010,07,07,07,10,17.00
2010,07,07,07,11,17.10
2010,07,07,07,12,17.10
2010,07,07,07,13,17.10
2010,07,07,07,14,17.10
2010,07,07,07,15,17.20
2010,07,07,07,16,17.30
2010,07,07,07,17,17.30
2010,07,07,07,18,17.30
2010,07,07,07,19,17.30
2010,07,07,07,20,17.40
2010,07,07,07,21,17.40
2010,07,07,07,22,17.40
2010,07,07,07,23,17.50
2010,07,07,07,24,17.50
2010,07,07,07,25,17.50
2010,07,07,07,26,17.60
2010,07,07,07,27,17.70
2010,07,07,07,28,17.80
2010,07,07,07,29,17.90
2010,07,07,07,30,17.90
2010,07,07,07,31,18.00
2010,07,07,07,32,18.10
2010,07,07,07,33,18.20
2010,07,07,07,34,18.20
2010,07,07,07,35,18.20
2010,07,07,07,36,18.30
2010,07,07,07,37,18.30
2010,07,07,07,38,18.30
2010,07,07,07,39,18.40
2010,07,07,07,40,18.50
2010,07,07,07,41,18.50
2010,07,07,07,42,18.50
2010,07,07,07,43,18.50
2010,07,07,07,44,18.60
2010,07,07,07,45,18.60
2010,07,07,07,46,18.70
2010,07,07,07,47,18.80
2010,07,07,07,48,18.90
2010,07,07,07,49,18.90
2010,07,07,07,50,19.10
2010,07,07,07,51,19.10
2010,07,07,07,52,19.10
2010,07,07,07,53,19.20
2010,07,07,07,54,19.20
2010,07,07,07,55,19.30
2010,07,07,07,56,19.30
2010,07,07,07,57,19.40
2010,07,07,07,58,19.40
2010,07,07,07,59,19.40
2010,07,07,08,00,19.50
2010,07,07,08,01,19.50
2010,07,07,08,02,19.60
2010,07,07,08,03,19.60
2010,07,07,08,04,19.60
2010,07,07,08,05,19.60
2010,07,07,08,06,19.60
2010,07,07,08,07,19.70
2010,07,07,08,08,19.70
2010,07,07,08,09,19.70
2010,07,07,08,10,19.80
2010,07,07,08,11,19.80
2010,07,07,08,12,19.90
2010,07,07,08,13,19.90
2010,07,07,08,14,19.90
2010,07,07,08,15,19.90
2010,07,07,08,16,20.10
2010,07,07,08,17,20.10
2010,07,07,08,18,20.10
2010,07,07,08,19,20.20
2010,07,07,08,20,20.20
2010,07,07,08,21,20.20
2010,07,07,08,22,20.20
2010,07,07,08,23,20.20
2010,07,07,08,24,20.20
2010,07,07,08,25,20.30
2010,07,07,08,26,20.30
2010,07,07,08,27,20.40
2010,07,07,08,28,20.40
2010,07,07,08,29,20.50
2010,07,07,08,30,20.60
2010,07,07,08,31,20.70
2010,07,07,08,32,20.80
2010,07,07,08,33,20.80
2010,07,07,08,34,20.90
2010,07,07,08,35,21.00
2010,07,07,08,36,21.10
2010,07,07,08,37,21.10
2010,07,07,08,38,21.20
2010,07,07,08,39,21.30
2010,07,07,08,40,21.30
2010,07,07,08,41,21.40
2010,07,07,08,42,21.60
2010,07,07,08,43,21.60
2010,07,07,08,44,21.70
2010,07,07,08,45,21.70
2010,07,07,08,46,21.80
2010,07,07,08,47,21.90
2010,07,07,08,48,21.90
2010,07,07,08,49,22.00
2010,07,07,08,50,22.00
2010,07,07,08,51,22.10
2010,07,07,08,52,22.10
2010,07,07,08,53,22.10
2010,07,07,08,54,22.20
2010,07,07,08,55,22.20
2010,07,07,08,56,22.20
2010,07,07,08,57,22.20
2010,07,07,08,58,22.20
2010,07,07,08,59,22.30
2010,07,07,09,00,22.40
2010,07,07,09,01,22.40
2010,07,07,09,02,22.40
2010,07,07,09,03,22.40
2010,07,07,09,04,22.50
2010,07,07,09,05,22.60
2010,07,07,09,06,22.60
2010,07,07,09,07,22.60
2010,07,07,09,08,22.60
2010,07,07,09,09,22.60
2010,07,07,09,10,22.60
2010,07,07,09,11,22.60
2010,07,07,09,12,22.70
2010,07,07,09,13,22.70
2010,07,07,09,14,22.80
2010,07,07,09,15,22.80
2010,07,07,09,16,22.80
2010,07,07,09,17,22.80
2010,07,07,09,18,22.90
2010,07,07,09,19,22.90
2010,07,07,09,20,22.90
2010,07,07,09,21,22.90
2010,07,07,09,22,22.90
2010,07,07,09,23,23.10
2010,07,07,09,24,23.10
2010,07,07,09,25,23.10
2010,07,07,09,26,23.20
2010,07,07,09,27,23.10
2010,07,07,09,28,23.10
2010,07,07,09,29,23.10
2010,07,07,09,30,23.10
2010,07,07,09,31,23.10
2010,07,07,09,32,23.10
2010,07,07,09,33,23.10
2010,07,07,09,34,23.00
2010,07,07,09,35,23.00
2010,07,07,09,36,23.00
2010,07,07,09,37,23.00
2010,07,07,09,38,23.10
2010,07,07,09,39,23.10
2010,07,07,09,40,23.10
2010,07,07,09,41,23.20
2010,07,07,09,42,23.20
2010,07,07,09,43,23.20
2010,07,07,09,44,23.20
2010,07,07,09,45,23.20
2010,07,07,09,46,23.30
2010,07,07,09,47,23.30
2010,07,07,09,48,23.30
2010,07,07,09,49,23.30
2010,07,07,09,50,23.40
2010,07,07,09,51,23.40
2010,07,07,09,52,23.40
2010,07,07,09,53,23.40
2010,07,07,09,54,23.40
2010,07,07,09,55,23.40
2010,07,07,09,56,23.40
2010,07,07,09,57,23.40
2010,07,07,09,58,23.40
2010,07,07,09,59,23.40
2010,07,07,10,00,23.40
2010,07,07,10,01,23.50
2010,07,07,10,02,23.40
2010,07,07,10,03,23.40
2010,07,07,10,04,23.50
2010,07,07,10,05,23.60
2010,07,07,10,06,23.60
2010,07,07,10,07,23.60
2010,07,07,10,08,23.70
2010,07,07,10,09,23.70
2010,07,07,10,10,23.70
2010,07,07,10,11,23.70
2010,07,07,10,12,23.70
2010,07,07,10,13,23.80
2010,07,07,10,14,23.80
2010,07,07,10,15,23.90
2010,07,07,10,16,24.00
2010,07,07,10,17,24.10
2010,07,07,10,18,24.10
2010,07,07,10,19,24.20
2010,07,07,10,20,24.30
2010,07,07,10,21,24.30
2010,07,07,10,22,24.30
2010,07,07,10,23,24.30
2010,07,07,10,24,24.30
2010,07,07,10,25,24.40
2010,07,07,10,26,24.40
2010,07,07,10,27,24.50
2010,07,07,10,28,24.50
2010,07,07,10,29,24.60
2010,07,07,10,30,24.60
2010,07,07,10,31,24.70
2010,07,07,10,32,24.70
2010,07,07,10,33,24.70
2010,07,07,10,34,24.80
2010,07,07,10,35,24.80
2010,07,07,10,36,24.90
2010,07,07,10,37,24.90
2010,07,07,10,38,24.90
2010,07,07,10,39,24.80
2010,07,07,10,40,24.80
2010,07,07,10,41,24.90
2010,07,07,10,42,24.90
2010,07,07,10,43,24.90
2010,07,07,10,44,25.00
2010,07,07,10,45,25.10
2010,07,07,10,46,25.10
2010,07,07,10,47,25.20
2010,07,07,10,48,25.20
2010,07,07,10,49,25.30
2010,07,07,10,50,25.30
2010,07,07,10,51,25.20
2010,07,07,10,52,25.20
2010,07,07,10,53,25.20
2010,07,07,10,54,25.20
2010,07,07,10,55,25.30
2010,07,07,10,56,25.30
2010,07,07,10,57,25.30
2010,07,07,10,58,25.30
2010,07,07,10,59,25.30
2010,07,07,11,00,25.40
2010,07,07,11,01,25.40
2010,07,07,11,02,25.50
2010,07,07,11,03,25.50
2010,07,07,11,04,25.50
2010,07,07,11,05,25.40
2010,07,07,11,06,25.40
2010,07,07,11,07,25.40
2010,07,07,11,08,25.50
2010,07,07,11,09,25.60
2010,07,07,11,10,25.60
2010,07,07,11,11,25.70
2010,07,07,11,12,25.80
2010,07,07,11,13,25.90
2010,07,07,11,14,25.90
2010,07,07,11,15,26.00
2010,07,07,11,16,26.00
2010,07,07,11,17,26.00
2010,07,07,11,18,26.00
2010,07,07,11,19,26.00
2010,07,07,11,20,26.10
2010,07,07,11,21,26.10
2010,07,07,11,22,26.00
2010,07,07,11,23,26.10
2010,07,07,11,24,26.10
2010,07,07,11,25,26.20
2010,07,07,11,26,26.30
2010,07,07,11,27,26.30
2010,07,07,11,28,26.40
2010,07,07,11,29,26.40
2010,07,07,11,30,26.40
2010,07,07,11,31,26.40
2010,07,07,11,32,26.40
2010,07,07,11,33,26.40
2010,07,07,11,34,26.40
2010,07,07,11,35,26.40
2010,07,07,11,36,26.40
2010,07,07,11,37,26.30
2010,07,07,11,38,26.20
2010,07,07,11,39,26.10
2010,07,07,11,40,26.10
2010,07,07,11,41,26.00
2010,07,07,11,42,26.10
2010,07,07,11,43,26.10
2010,07,07,11,44,26.10
2010,07,07,11,45,26.10
2010,07,07,11,46,26.10
2010,07,07,11,47,26.10
2010,07,07,11,48,26.20
2010,07,07,11,49,26.20
2010,07,07,11,50,26.10
2010,07,07,11,51,26.10
2010,07,07,11,52,26.10
2010,07,07,11,53,26.10
2010,07,07,11,54,26.20
2010,07,07,11,55,26.20
2010,07,07,11,56,26.30
2010,07,07,11,57,26.40
2010,07,07,11,58,26.40
2010,07,07,11,59,26.40
2010,07,07,12,00,26.50
2010,07,07,12,01,26.60
2010,07,07,12,02,26.60
2010,07,07,12,03,26.70
2010,07,07,12,04,26.70
2010,07,07,12,05,26.70
2010,07,07,12,06,26.70
2010,07,07,12,07,26.70
2010,07,07,12,08,26.70
2010,07,07,12,09,26.70
2010,07,07,12,10,26.70
2010,07,07,12,11,26.80
2010,07,07,12,12,26.90
2010,07,07,12,13,26.90
2010,07,07,12,14,27.10
2010,07,07,12,15,27.10
2010,07,07,12,16,27.10
2010,07,07,12,17,27.10
2010,07,07,12,18,27.10
2010,07,07,12,19,27.20
2010,07,07,12,20,27.20
2010,07,07,12,21,27.30
2010,07,07,12,22,27.30
2010,07,07,12,23,27.30
2010,07,07,12,24,27.30
2010,07,07,12,25,27.40
2010,07,07,12,26,27.40
2010,07,07,12,27,27.50
2010,07,07,12,28,27.60
2010,07,07,12,29,27.60
2010,07,07,12,30,27.70
2010,07,07,12,31,27.70
2010,07,07,12,32,27.70
2010,07,07,12,33,27.60
2010,07,07,12,34,27.50
2010,07,07,12,35,27.40
2010,07,07,12,36,27.30
2010,07,07,12,37,27.30
2010,07,07,12,38,27.30
2010,07,07,12,39,27.30
2010,07,07,12,40,27.30
2010,07,07,12,41,27.40
2010,07,07,12,42,27.50
2010,07,07,12,43,27.60
2010,07,07,12,44,27.50
2010,07,07,12,45,27.30
2010,07,07,12,46,27.30
2010,07,07,12,47,27.30
2010,07,07,12,48,27.30
2010,07,07,12,49,27.30
2010,07,07,12,50,27.30
2010,07,07,12,51,27.30
2010,07,07,12,52,27.30
2010,07,07,12,53,27.40
2010,07,07,12,54,27.40
2010,07,07,12,55,27.50
2010,07,07,12,56,27.70
2010,07,07,12,57,27.70
2010,07,07,12,58,27.70
2010,07,07,12,59,27.70
2010,07,07,13,00,27.60
2010,07,07,13,01,27.70
2010,07,07,13,02,27.70
2010,07,07,13,03,27.60
2010,07,07,13,04,27.70
2010,07,07,13,05,27.70
2010,07,07,13,06,27.70
2010,07,07,13,07,27.70
2010,07,07,13,08,27.80
2010,07,07,13,09,27.90
2010,07,07,13,10,27.90
2010,07,07,13,11,28.00
2010,07,07,13,12,28.10
2010,07,07,13,13,28.10
2010,07,07,13,14,28.20
2010,07,07,13,15,28.30
2010,07,07,13,16,28.30
2010,07,07,13,17,28.30
2010,07,07,13,18,28.30
2010,07,07,13,19,28.30
2010,07,07,13,20,28.20
2010,07,07,13,21,28.20
2010,07,07,13,22,28.20
2010,07,07,13,23,28.20
2010,07,07,13,24,28.30
2010,07,07,13,25,28.30
2010,07,07,13,26,28.40
2010,07,07,13,27,28.40
2010,07,07,13,28,28.40
2010,07,07,13,29,28.50
2010,07,07,13,30,28.60
2010,07,07,13,31,28.70
2010,07,07,13,32,28.70
2010,07,07,13,33,28.80
2010,07,07,13,34,28.80
2010,07,07,13,35,28.80
2010,07,07,13,36,28.90
2010,07,07,13,37,28.90
2010,07,07,13,38,28.90
2010,07,07,13,39,28.90
2010,07,07,13,40,28.90
2010,07,07,13,41,28.90
2010,07,07,13,42,28.90
2010,07,07,13,43,28.90
2010,07,07,13,44,28.90
2010,07,07,13,45,28.90
2010,07,07,13,46,28.90
2010,07,07,13,47,28.80
2010,07,07,13,48,28.80
2010,07,07,13,49,28.90
2010,07,07,13,50,28.90
2010,07,07,13,51,28.90
2010,07,07,13,52,28.90
2010,07,07,13,53,28.90
2010,07,07,13,54,28.90
2010,07,07,13,55,28.90
2010,07,07,13,56,28.90
2010,07,07,13,57,28.90
2010,07,07,13,58,28.90
2010,07,07,13,59,28.90
2010,07,07,14,00,28.80
2010,07,07,14,01,28.80
2010,07,07,14,02,28.90
2010,07,07,14,03,28.90
2010,07,07,14,04,28.90
2010,07,07,14,05,29.10
2010,07,07,14,06,29.10
2010,07,07,14,07,29.20
2010,07,07,14,08,29.30
2010,07,07,14,09,29.30
2010,07,07,14,10,29.30
2010,07,07,14,11,29.30
2010,07,07,14,12,29.30
2010,07,07,14,13,29.30
2010,07,07,14,14,29.20
2010,07,07,14,15,29.20
2010,07,07,14,16,29.20
2010,07,07,14,17,29.20
2010,07,07,14,18,29.20
2010,07,07,14,19,29.20
2010,07,07,14,20,29.20
2010,07,07,14,21,29.20
2010,07,07,14,22,29.20
2010,07,07,14,23,29.30
2010,07,07,14,24,29.30
2010,07,07,14,25,29.30
2010,07,07,14,26,29.40
2010,07,07,14,27,29.50
2010,07,07,14,28,29.60
2010,07,07,14,29,29.60
2010,07,07,14,30,29.60
2010,07,07,14,31,29.60
2010,07,07,14,32,29.50
2010,07,07,14,33,29.50
2010,07,07,14,34,29.50
2010,07,07,14,35,29.50
2010,07,07,14,36,29.60
2010,07,07,14,37,29.70
2010,07,07,14,38,29.70
2010,07,07,14,39,29.70
2010,07,07,14,40,29.70
2010,07,07,14,41,29.70
2010,07,07,14,42,29.70
2010,07,07,14,43,29.70
2010,07,07,14,44,29.80
2010,07,07,14,45,29.80
2010,07,07,14,46,29.70
2010,07,07,14,47,29.70
2010,07,07,14,48,29.70
2010,07,07,14,49,29.80
2010,07,07,14,50,29.80
2010,07,07,14,51,29.80
2010,07,07,14,52,29.80
2010,07,07,14,53,29.90
2010,07,07,14,54,29.90
2010,07,07,14,55,30.00
2010,07,07,14,56,30.10
2010,07,07,14,57,30.10
2010,07,07,14,58,30.10
2010,07,07,14,59,30.10
2010,07,07,15,00,30.10
2010,07,07,15,01,30.00
2010,07,07,15,02,30.00
2010,07,07,15,03,30.10
2010,07,07,15,04,30.10
2010,07,07,15,05,30.10
2010,07,07,15,06,30.10
2010,07,07,15,07,30.10
2010,07,07,15,08,30.10
2010,07,07,15,09,30.20
2010,07,07,15,10,30.20
2010,07,07,15,11,30.20
2010,07,07,15,12,30.20
2010,07,07,15,13,30.10
2010,07,07,15,14,30.20
2010,07,07,15,15,30.30
2010,07,07,15,16,30.30
2010,07,07,15,17,30.30
2010,07,07,15,18,30.40
2010,07,07,15,19,30.40
2010,07,07,15,20,30.40
2010,07,07,15,21,30.40
2010,07,07,15,22,30.30
2010,07,07,15,23,30.30
2010,07,07,15,24,30.30
2010,07,07,15,25,30.40
2010,07,07,15,26,30.40
2010,07,07,15,27,30.30
2010,07,07,15,28,30.30
2010,07,07,15,29,30.40
2010,07,07,15,30,30.40
2010,07,07,15,31,30.40
2010,07,07,15,32,30.40
2010,07,07,15,33,30.40
2010,07,07,15,34,30.40
2010,07,07,15,35,30.40
2010,07,07,15,36,30.40
2010,07,07,15,37,30.30
2010,07,07,15,38,30.30
2010,07,07,15,39,30.30
2010,07,07,15,40,30.30
2010,07,07,15,41,30.30
2010,07,07,15,42,30.30
2010,07,07,15,43,30.20
2010,07,07,15,44,30.20
2010,07,07,15,45,30.20
2010,07,07,15,46,30.20
2010,07,07,15,47,30.20
2010,07,07,15,48,30.30
2010,07,07,15,49,30.30
2010,07,07,15,50,30.30
2010,07,07,15,51,30.40
2010,07,07,15,52,30.30
2010,07,07,15,53,30.30
2010,07,07,15,54,30.30
2010,07,07,15,55,30.30
2010,07,07,15,56,30.30
2010,07,07,15,57,30.30
2010,07,07,15,58,30.30
2010,07,07,15,59,30.30
2010,07,07,16,00,30.30
2010,07,07,16,01,30.30
2010,07,07,16,02,30.30
2010,07,07,16,03,30.30
2010,07,07,16,04,30.30
2010,07,07,16,05,30.20
2010,07,07,16,06,30.20
2010,07,07,16,07,30.20
2010,07,07,16,08,30.20
2010,07,07,16,09,30.30
2010,07,07,16,10,30.30
2010,07,07,16,11,30.30
2010,07,07,16,12,30.30
2010,07,07,16,13,30.20
2010,07,07,16,14,30.20
2010,07,07,16,15,30.20
2010,07,07,16,16,30.10
2010,07,07,16,17,30.00
2010,07,07,16,18,29.90
2010,07,07,16,19,29.80
2010,07,07,16,20,29.70
2010,07,07,16,21,29.70
2010,07,07,16,22,29.60
2010,07,07,16,23,29.50
2010,07,07,16,24,29.50
2010,07,07,16,25,29.40
2010,07,07,16,26,29.30
2010,07,07,16,27,29.20
2010,07,07,16,28,29.20
2010,07,07,16,29,29.10
2010,07,07,16,30,29.10
2010,07,07,16,31,28.90
2010,07,07,16,32,28.90
2010,07,07,16,33,28.90
2010,07,07,16,34,28.90
2010,07,07,16,35,28.80
2010,07,07,16,36,28.80
2010,07,07,16,37,28.80
2010,07,07,16,38,28.70
2010,07,07,16,39,28.70
2010,07,07,16,40,28.70
2010,07,07,16,41,28.70
2010,07,07,16,42,28.70
2010,07,07,16,43,28.70
2010,07,07,16,44,28.70
2010,07,07,16,45,28.60
2010,07,07,16,46,28.60
2010,07,07,16,47,28.50
2010,07,07,16,48,28.40
2010,07,07,16,49,28.40
2010,07,07,16,50,28.40
2010,07,07,16,51,28.40
2010,07,07,16,52,28.40
2010,07,07,16,53,28.40
2010,07,07,16,54,28.30
2010,07,07,16,55,28.30
2010,07,07,16,56,28.30
2010,07,07,16,57,28.30
2010,07,07,16,58,28.30
2010,07,07,16,59,28.30
2010,07,07,17,00,28.30
2010,07,07,17,01,28.30
2010,07,07,17,02,28.30
2010,07,07,17,03,28.30
2010,07,07,17,04,28.30
2010,07,07,17,05,28.20
2010,07,07,17,06,28.20
2010,07,07,17,07,28.20
2010,07,07,17,08,28.20
2010,07,07,17,09,28.20
2010,07,07,17,10,28.10
2010,07,07,17,11,28.10
2010,07,07,17,12,28.10
2010,07,07,17,13,28.10
2010,07,07,17,14,28.00
2010,07,07,17,15,28.00
2010,07,07,17,16,28.00
2010,07,07,17,17,28.00
2010,07,07,17,18,28.00
2010,07,07,17,19,28.00